Location: Asheville, NC
(35.6000°N, 82.5500°W)
Time: 12:11:40
(UTC-04:00)

BUGSAT 1 - Visible Passes

Search period start: 19 June 2018 00:00
Search period end: 29 June 2018 00:00
Orbit: 560 x 604 km, 98.0° (Epoch: 19 June)

Date Brightness Start Highest point End Pass type
(mag) Time Alt. Az. Time Alt. Az. Time Alt. Az.
19 Jun ? 02:26:30 10° NE 02:28:43 24° ENE 02:28:43 24° ENE visible
19 Jun ? 04:02:31 10° NNW 04:05:05 17° WNW 04:05:05 17° WNW visible
20 Jun ? 02:31:57 10° NNE 02:34:21 27° ENE 02:34:21 27° ENE visible
20 Jun ? 04:08:25 10° NNW 04:10:41 15° WNW 04:10:44 15° WNW visible
21 Jun ? 02:37:27 10° NNE 02:40:00 31° NE 02:40:00 31° NE visible
21 Jun ? 04:14:25 10° NW 04:16:13 13° WNW 04:16:22 13° WNW visible
22 Jun ? 02:42:58 10° NNE 02:45:38 35° NE 02:45:38 35° NE visible
22 Jun ? 04:20:40 10° NW 04:21:44 11° WNW 04:22:00 11° WNW visible
23 Jun ? 02:48:29 10° NNE 02:51:16 39° NE 02:51:16 39° NE visible
24 Jun ? 02:54:02 10° NNE 02:56:53 43° NNE 02:56:53 43° NNE visible
25 Jun ? 02:59:36 10° NNE 03:02:31 46° NNE 03:02:31 46° NNE visible
26 Jun ? 03:05:11 10° N 03:08:08 48° N 03:08:08 48° N visible
27 Jun ? 03:10:46 10° N 03:13:46 48° N 03:13:46 48° N visible
28 Jun ? 03:16:22 10° N 03:19:23 45° NNW 03:19:23 45° NNW visible
